When you browse on this site, cookies collect data to enhance your experience and personalize the content and advertising you see.
Visit our Privacy Policy to learn more. By continuing to use the site, you agree to this use of cookies and data.
  • In Hungary
  • List of Countries
  • For 7 days
  • Water Temperature
  • Weather Map
  • News
  • Weather Widgets
  • user-avatar
    Login

    Hourly Weather Swidwie

    Today, 14 November, Thursday

    Time Temperature Precipitation Wind Pressure Humidity
    00:00 +3°C° 0.8 mm 3 mps 741 mmHg 93%
    01:00 +3°C° 0.8 mm 3 mps 741 mmHg 93%
    02:00 +3°C° 0.2 mm 3 mps 742 mmHg 93%
    03:00 +3°C° 0.2 mm 4 mps 742 mmHg 93%
    04:00 +3°C° 0.2 mm 4 mps 742 mmHg 93%
    05:00 +3°C° 0 mm 3 mps 743 mmHg 93%
    06:00 +3°C° 0 mm 3 mps 744 mmHg 92%
    07:00 +3°C° 0 mm 2 mps 744 mmHg 92%
    08:00 +3°C° 0 mm 3 mps 745 mmHg 89%
    09:00 +3°C° 0 mm 3 mps 746 mmHg 86%
    10:00 +4°C° 0 mm 3 mps 746 mmHg 83%
    11:00 +4°C° 0 mm 3 mps 747 mmHg 80%
    12:00 +6°C° 0 mm 2 mps 747 mmHg 77%
    13:00 +7°C° 0 mm 2 mps 748 mmHg 74%
    14:00 +6°C° 0 mm 2 mps 748 mmHg 77%
    15:00 +5°C° 0 mm 2 mps 748 mmHg 80%
    16:00 +6°C° 0 mm 1 mps 749 mmHg 83%
    17:00 +4°C° 0 mm 2 mps 749 mmHg 85%
    18:00 +4°C° 0 mm 2 mps 749 mmHg 87%
    19:00 +2°C° 0 mm 3 mps 749 mmHg 89%
    20:00 +2°C° 0 mm 3 mps 749 mmHg 89%
    21:00 +2°C° 0 mm 3 mps 750 mmHg 89%
    22:00 +2°C° 0 mm 3 mps 750 mmHg 90%
    23:00 +1°C° 0 mm 4 mps 750 mmHg 90%

    Tomorrow, 15 November, Friday

    Time Temperature Precipitation Wind Pressure Humidity
    00:00 +1°C° 0 mm 4 mps 750 mmHg 90%
    01:00 +1°C° 0 mm 4 mps 749 mmHg 90%
    02:00 +1°C° 0 mm 5 mps 749 mmHg 90%
    03:00 +1°C° 0 mm 5 mps 749 mmHg 91%
    04:00 +1°C° 0 mm 5 mps 748 mmHg 91%
    05:00 +1°C° 0 mm 5 mps 748 mmHg 91%
    06:00 +1°C° 0 mm 5 mps 748 mmHg 92%
    07:00 +1°C° 0 mm 6 mps 748 mmHg 92%
    08:00 +2°C° 0 mm 6 mps 748 mmHg 93%
    09:00 +3°C° 0 mm 5 mps 748 mmHg 94%
    10:00 +5°C° 0 mm 5 mps 748 mmHg 95%
    11:00 +6°C° 0 mm 5 mps 748 mmHg 94%
    12:00 +7°C° 0 mm 5 mps 747 mmHg 93%
    13:00 +8°C° 0 mm 5 mps 747 mmHg 92%
    14:00 +8°C° 0 mm 5 mps 747 mmHg 92%
    15:00 +8°C° 0 mm 5 mps 747 mmHg 91%
    16:00 +8°C° 0 mm 5 mps 746 mmHg 91%
    17:00 +8°C° 0 mm 5 mps 746 mmHg 92%
    18:00 +7°C° 0 mm 5 mps 746 mmHg 93%
    19:00 +7°C° 0 mm 5 mps 746 mmHg 93%
    20:00 +7°C° 0 mm 5 mps 746 mmHg 94%
    21:00 +7°C° 0 mm 5 mps 746 mmHg 94%
    22:00 +7°C° 0 mm 5 mps 746 mmHg 94%
    23:00 +7°C° 0 mm 5 mps 746 mmHg 95%

    Day after tomorrow, 16 November, Saturday

    Time Temperature Precipitation Wind Pressure Humidity
    00:00 +7°C° 0 mm 5 mps 746 mmHg 95%
    01:00 +7°C° 0 mm 5 mps 745 mmHg 95%
    02:00 +7°C° 0 mm 5 mps 745 mmHg 95%
    03:00 +7°C° 0 mm 5 mps 744 mmHg 94%
    04:00 +7°C° 0 mm 5 mps 744 mmHg 94%
    05:00 +7°C° 0 mm 5 mps 744 mmHg 92%
    06:00 +7°C° 0 mm 5 mps 743 mmHg 90%
    07:00 +8°C° 0 mm 6 mps 743 mmHg 87%
    08:00 +8°C° 0 mm 6 mps 743 mmHg 85%
    09:00 +9°C° 0 mm 6 mps 744 mmHg 82%
    10:00 +10°C° 0 mm 6 mps 744 mmHg 79%
    11:00 +10°C° 0 mm 6 mps 744 mmHg 76%
    12:00 +11°C° 0 mm 6 mps 744 mmHg 73%
    13:00 +13°C° 0 mm 6 mps 745 mmHg 70%
    14:00 +10°C° 0 mm 6 mps 745 mmHg 71%
    15:00 +9°C° 0 mm 5 mps 745 mmHg 71%
    16:00 +7°C° 0 mm 4 mps 746 mmHg 72%
    17:00 +6°C° 0 mm 4 mps 746 mmHg 74%
    18:00 +6°C° 0 mm 4 mps 747 mmHg 76%
    19:00 +5°C° 0 mm 4 mps 748 mmHg 77%
    20:00 +5°C° 0 mm 4 mps 748 mmHg 78%
    21:00 +5°C° 0 mm 3 mps 749 mmHg 79%
    22:00 +4°C° 0 mm 3 mps 749 mmHg 80%
    23:00 +4°C° 0 mm 3 mps 749 mmHg 81%

    17 November, Sunday

    Time Temperature Precipitation Wind Pressure Humidity
    00:00 +4°C° 0 mm 3 mps 750 mmHg 82%
    01:00 +3°C° 0 mm 3 mps 750 mmHg 83%
    02:00 +3°C° 0 mm 3 mps 750 mmHg 84%
    03:00 +3°C° 0 mm 3 mps 750 mmHg 85%
    04:00 +3°C° 0 mm 3 mps 750 mmHg 86%
    05:00 +3°C° 0 mm 2 mps 751 mmHg 86%
    06:00 +3°C° 0 mm 2 mps 751 mmHg 86%
    07:00 +3°C° 0 mm 2 mps 751 mmHg 87%
    08:00 +4°C° 0 mm 2 mps 751 mmHg 82%
    09:00 +6°C° 0 mm 1 mps 752 mmHg 78%
    10:00 +7°C° 0 mm 1 mps 752 mmHg 74%
    11:00 +7°C° 0 mm 1 mps 752 mmHg 75%
    12:00 +7°C° 0 mm 1 mps 752 mmHg 75%
    13:00 +7°C° 0 mm 1 mps 752 mmHg 76%
    14:00 +6°C° 0 mm 2 mps 751 mmHg 76%
    15:00 +6°C° 0 mm 2 mps 751 mmHg 77%
    16:00 +6°C° 0 mm 2 mps 751 mmHg 78%
    17:00 +5°C° 0 mm 3 mps 751 mmHg 80%
    18:00 +5°C° 0 mm 4 mps 750 mmHg 83%
    19:00 +5°C° 0 mm 4 mps 750 mmHg 85%
    20:00 +5°C° 0 mm 4 mps 750 mmHg 88%
    21:00 +5°C° 0 mm 4 mps 750 mmHg 91%
    22:00 +5°C° 0 mm 4 mps 749 mmHg 94%
    23:00 +5°C° 0 mm 4 mps 749 mmHg 94%

    18 November, Monday

    Time Temperature Precipitation Wind Pressure Humidity
    00:00 +6°C° 0 mm 4 mps 748 mmHg 93%
    01:00 +6°C° 0 mm 4 mps 748 mmHg 93%
    02:00 +6°C° 0 mm 4 mps 747 mmHg 93%
    03:00 +5°C° 0 mm 4 mps 747 mmHg 94%
    04:00 +5°C° 0 mm 4 mps 746 mmHg 94%
    05:00 +5°C° 0 mm 4 mps 746 mmHg 94%
    06:00 +5°C° 0 mm 5 mps 746 mmHg 95%
    07:00 +6°C° 0 mm 5 mps 746 mmHg 95%
    08:00 +6°C° 0 mm 5 mps 745 mmHg 93%
    09:00 +7°C° 0 mm 5 mps 745 mmHg 91%
    10:00 +7°C° 0 mm 5 mps 745 mmHg 89%
    11:00 +8°C° 0 mm 5 mps 745 mmHg 87%
    12:00 +8°C° 0 mm 6 mps 744 mmHg 85%
    13:00 +9°C° 0 mm 6 mps 744 mmHg 83%
    14:00 +8°C° 0 mm 6 mps 743 mmHg 84%
    15:00 +8°C° 0 mm 5 mps 743 mmHg 84%
    16:00 +8°C° 0 mm 5 mps 743 mmHg 85%
    17:00 +8°C° 0 mm 5 mps 743 mmHg 81%
    18:00 +8°C° 0 mm 6 mps 743 mmHg 78%
    19:00 +9°C° 0 mm 6 mps 743 mmHg 75%
    20:00 +8°C° 0 mm 6 mps 744 mmHg 77%
    21:00 +7°C° 0 mm 6 mps 744 mmHg 79%
    22:00 +6°C° 0 mm 5 mps 745 mmHg 82%
    23:00 +6°C° 0 mm 5 mps 745 mmHg 83%

    19 November, Tuesday

    Time Temperature Precipitation Wind Pressure Humidity
    00:00 +5°C° 0 mm 4 mps 746 mmHg 84%
    01:00 +4°C° 0 mm 4 mps 746 mmHg 85%
    02:00 +4°C° 0 mm 4 mps 746 mmHg 84%
    03:00 +4°C° 0 mm 4 mps 746 mmHg 82%
    04:00 +4°C° 0 mm 4 mps 747 mmHg 81%
    05:00 +3°C° 0 mm 4 mps 747 mmHg 82%
    06:00 +3°C° 0 mm 4 mps 747 mmHg 84%
    07:00 +3°C° 0 mm 4 mps 747 mmHg 85%
    08:00 +3°C° 0 mm 5 mps 748 mmHg 80%
    09:00 +3°C° 0 mm 5 mps 748 mmHg 75%
    10:00 +4°C° 0 mm 6 mps 749 mmHg 69%
    11:00 +5°C° 0 mm 5 mps 749 mmHg 68%
    12:00 +6°C° 0 mm 5 mps 749 mmHg 66%
    13:00 +6°C° 0 mm 5 mps 749 mmHg 65%
    14:00 +6°C° 0 mm 4 mps 749 mmHg 69%
    15:00 +5°C° 0 mm 3 mps 750 mmHg 72%
    16:00 +4°C° 0 mm 3 mps 750 mmHg 76%
    17:00 +4°C° 0 mm 3 mps 750 mmHg 78%
    18:00 +4°C° 0 mm 2 mps 750 mmHg 80%
    19:00 +4°C° 0 mm 2 mps 750 mmHg 82%
    20:00 +4°C° 0 mm 2 mps 751 mmHg 83%
    21:00 +4°C° 0 mm 2 mps 751 mmHg 83%
    22:00 +3°C° 0 mm 2 mps 751 mmHg 84%
    23:00 +3°C° 0 mm 2 mps 751 mmHg 85%
    Show more